User: anonymous   Login
Location: Unspecified
(0.0000°N, 0.0000°E)
Time: 17:05:37
(UTC+00:00)
Language:

Oscar 16 - Orbit

View from above orbital plane
View from above orbital plane
View from above satellite
View from above satellite

Ground track
Ground track

The orbit data is extracted from the following two-line orbital elements,

1 20439U 90005D   17264.83124769 +.00000008 +00000-0 +19248-4 0  9998
2 20439 098.6147 203.5400 0009809 234.4793 185.2989 14.32692968444999
Epoch (UTC): 21 September 2017 19:56:59
Eccentricity: 0.0009809
inclination: 98.6147°
perigee height: 776 km
apogee height: 790 km
right ascension of ascending node: 203.5400°
argument of perigee: 234.4793°
revolutions per day: 14.32692968
mean anomaly at epoch: 185.2989°
orbit number at epoch: 44499

The dashed part of the orbit path shows where the satellite is in the earth's shadow,  

DLR